#timestamp,LO_Frequency,Hit,StdDev 
1502445615.4,286047001.0,N,1.0
1502445635.2,286047000.0,N,1.0
1502445655.1,286047000.0,N,1.0
1502445656.0,286047000.0,N,1.0
1502445675.8,286046999.7,N,0.9
1502445695.7,286047002.4,N,1.0
1502445715.5,286047002.4,N,1.0
1502445735.3,286046999.7,N,1.0
1502445755.2,286047000.0,N,1.0
1502445775.0,286047002.4,N,1.1
1502445775.9,286047002.4,N,1.1
1502445795.8,286047002.4,N,1.1
1502445815.6,286046999.7,N,1.2
1502445835.4,286047002.3,N,1.2
1502445855.3,286047002.3,N,1.2
1502445875.1,286047000.0,N,1.2
1502445895.9,286047002.8,N,1.2
1502445915.7,286047000.1,N,1.2
1502445935.5,286046999.7,N,1.2
1502445955.4,286047002.5,N,1.2
1502445975.2,286047002.2,N,1.2
1502445995.1,286047002.0,N,1.2
1502445996.0,286047002.0,N,1.2
1502446015.8,286047002.3,N,1.2
1502446035.6,286047002.0,N,1.2
1502446055.5,286047002.3,N,1.2
1502446075.3,286047002.6,N,1.2
1502446095.1,286047002.5,N,1.2
1502446115.9,286047002.2,N,1.2
1502446135.7,286047002.3,N,1.2
1502446155.6,286047002.5,N,1.2
1502446175.4,286047002.1,N,1.1
1502446195.2,286047001.8,N,1.1
1502446215.1,286047001.4,N,1.1
1502446216.0,286047001.4,N,1.0
1502446235.8,286047001.6,N,1.0
1502446255.7,286047001.6,N,1.0
1502446275.5,286047002.0,N,0.9
1502446295.3,286047001.7,N,0.8
1502446315.2,286047003.5,Y,0.0
1502446335.0,286047000.6,P,0.6
1502446335.9,286047000.6,N,0.6
1502446355.8,286047002.7,P,0.9
1502446375.6,286046999.7,N,1.1
1502446395.4,286047002.2,N,1.0
1502446415.3,286047002.2,N,1.0
1502446435.1,286047002.0,N,1.0
1502446455.8,286047001.9,N,0.9
1502446475.7,286047001.4,N,0.9
1502446495.5,286047002.5,N,0.9
1502446515.4,286047000.2,N,0.9
1502446535.2,286047002.7,N,1.0
1502446555.0,286047002.1,N,0.9
1502446555.9,286047002.1,N,0.9
1502446575.8,286047002.6,N,0.9
1502446595.6,286047002.1,N,0.9
1502446615.5,286047002.4,N,0.9
1502446635.3,286047003.8,Y,0.0
1502446655.1,286047000.0,P,0.9
1502446675.9,286047000.6,N,0.7
1502446695.7,286047000.5,N,0.6
1502446715.6,286047002.8,Y,0.0
1502446735.4,286047001.1,P,0.2
1502446755.2,286046999.9,N,0.5
1502446775.1,286047000.2,N,0.5
1502446776.0,286047000.2,N,0.4
1502446795.8,286046999.9,N,0.4
1502446815.7,286046999.9,N,0.4
1502446835.5,286046999.7,N,0.4
1502446855.3,286046999.9,N,0.4
1502446875.2,286047000.8,N,0.5
1502446895.0,286047000.3,N,0.4
1502446895.9,286047000.3,N,0.4
1502446915.8,286047000.9,N,0.4
1502446935.6,286047000.4,N,0.4
1502446955.4,286047000.5,N,0.4
1502446975.3,286047000.9,N,0.4
1502446995.1,286042828.0,Y,0.0
1502447015.8,286047000.6,P,0.1
1502447035.7,286046999.7,N,0.4
1502447055.5,286047002.8,P,1.2
1502447075.4,286047002.4,N,1.2
1502447095.2,286047002.5,N,1.2
1502447115.0,286047000.1,N,1.2
1502447115.9,286047000.1,N,1.2
1502447135.8,286047002.3,N,1.2
1502447155.6,286047001.9,N,1.1
1502447175.5,286047001.7,N,1.1
1502447195.3,286047002.4,N,1.1
1502447215.1,286047002.3,N,1.1
1502447235.9,286047002.4,N,1.1
1502447255.7,286047002.5,N,1.1
1502447275.6,286047002.2,N,1.0
1502447295.4,286047002.8,N,1.0
1502447315.2,286047002.1,N,1.0
1502447335.1,286046999.8,N,1.1
1502447336.0,286046999.8,N,1.1
1502447355.8,286047000.1,N,1.1
1502447375.7,286047000.2,N,1.1
1502447395.5,286046999.9,N,1.2
1502447415.3,286047000.1,N,1.2
1502447435.2,286046999.7,N,1.2
1502447455.0,286047000.2,N,1.2
1502447455.9,286047000.2,N,1.2
1502447475.7,286047000.2,N,1.2
1502447495.6,286047000.0,N,1.2
1502447515.4,286047000.1,N,1.2
1502447535.3,286046998.1,N,1.3
1502447555.1,286047000.6,N,1.3
1502447575.8,286047000.3,N,1.2
1502447595.7,286046999.7,N,1.2
1502447615.5,286047002.3,N,1.2
1502447635.4,286046999.7,N,1.2
1502447655.2,286047000.1,N,1.2
1502447675.0,286047002.7,N,1.2
1502447675.9,286047002.7,N,1.3
1502447695.8,286047000.1,N,1.2
1502447715.6,286046999.8,N,1.3
1502447735.5,286047000.3,N,1.2
1502447755.3,286047000.3,N,1.2
1502447775.1,286047000.3,N,1.1
1502447795.9,286047002.7,N,1.1
1502447815.7,286047003.9,Y,0.0
1502447835.5,286047006.0,P,2.7
1502447855.4,286047005.6,N,2.5
1502447875.2,286047002.9,N,2.2
1502447895.1,286047003.4,N,2.0
1502447896.0,286047003.4,N,1.8
1502447915.8,286047003.4,N,1.7
1502447935.6,286047003.1,N,1.6
1502447955.5,286047003.0,N,1.5
1502447975.3,286047004.2,N,1.4
1502447995.2,286047003.7,N,1.4
1502448015.9,286047004.1,N,1.3
1502448035.7,286047003.9,N,1.3
1502448055.6,286047004.3,Y,0.0
1502448075.4,286047000.0,P,1.8
1502448095.3,286046998.8,N,2.1
1502448115.1,286047000.6,N,1.8
1502448116.0,286047000.6,N,1.6
1502448135.8,286046998.1,N,1.8
1502448155.7,286046998.7,N,1.7
1502448175.5,286046996.6,N,2.0
1502448195.4,286046999.1,N,1.9
1502448215.2,286047000.3,N,1.8
1502448235.0,286046999.7,N,1.7
1502448235.9,286046999.7,N,1.6
1502448255.8,286047000.2,N,1.6
1502448275.6,286047002.7,N,1.7
1502448295.5,286047004.4,N,2.0
1502448315.3,286047004.1,N,2.1
1502448335.1,286047002.1,N,2.1
1502448355.9,286047003.3,N,2.2
1502448375.7,286047001.7,N,2.1
1502448395.5,286047006.0,N,2.3
1502448415.4,286047003.4,N,2.3
1502448435.2,286047003.6,N,2.4
1502448455.1,286047003.5,N,2.3
1502448456.0,286047003.5,N,2.3
1502448475.8,286047001.7,N,2.3
1502448495.6,286047003.8,N,2.3
1502448515.5,286047003.7,N,2.3
1502448535.3,286047003.2,N,2.3
1502448555.2,286047005.7,N,2.3
1502448575.9,286047004.4,N,2.3
1502448595.7,286047003.8,N,2.4
1502448615.6,286047003.6,N,2.3
1502448635.4,286047003.0,N,2.3
1502448655.3,286047002.9,N,2.3
1502448675.1,286047003.3,N,2.2
1502448695.8,286047003.1,N,2.1
1502448715.7,286047003.2,N,2.0
1502448735.5,286047003.1,N,1.6
1502448755.4,286047004.3,N,1.5
1502448775.2,286047003.6,N,1.4
1502448795.0,286047004.1,N,1.3
1502448795.9,286047004.1,Y,0.0
1502448815.8,286047000.2,P,1.5
1502448835.6,286047002.8,N,1.4
1502448855.5,286047000.2,N,1.4
1502448875.3,286046999.9,N,1.5
1502448895.1,286047002.8,N,1.4
1502448915.9,286047001.0,N,1.4
1502448935.7,286046999.8,N,1.4
1502448955.6,286047000.7,N,1.3
1502448975.4,286046999.3,N,1.4
1502448995.2,286046998.3,N,1.5
1502449015.1,286047001.1,N,1.5
1502449016.0,286047001.1,N,1.4
1502449035.8,286046998.7,N,1.5
1502449055.7,286047000.3,N,1.4
1502449075.5,286046998.7,N,1.4
1502449095.3,286047001.2,N,1.4
1502449115.2,286047000.7,N,1.4
1502449135.0,286046998.1,N,1.4
1502449135.9,286046998.1,N,1.5
1502449155.8,286046998.7,N,1.5
1502449175.6,286046998.3,N,1.5
1502449195.4,286046998.9,N,1.5
